Home   Weather   Fort William   Past weeks
Flag for United Kingdom

Past Weather in Fort William, Scotland, United Kingdom — Yesterday and Last 2 Weeks

Now
47 °F

Cool.


Feels Like: 47 °F
Forecast: 53 / 36 °F
Wind: 2 mph from Northwest

Location: Tulloch Bridge

Current Time: May 21, 2019 at 1:44:52 am

Latest Report: May 21, 2019 at 1:00 am


Visibility: 31 mi

Pressure: 30.04 "Hg

Humidity: 96%

Dew Point: 46 °F

Location of Fort WilliamLocation

Past Weather in Fort William — Graph

°F

Fort William Temperature Yesterday

Maximum temperature yesterday: 55 °F (at 2:00 pm)
Minimum temperature yesterday: 47 °F (at 5:00 am)
Average temperature yesterday: 50 °F

High & Low Weather Summary for the Past Weeks

 TemperatureHumidityPressure
High74 °F (May 15, 4:00 pm)100% (May 11, 1:00 am)30.65 "Hg (May 11, 1:00 am)
Low26 °F (May 12, 3:00 am)32% (May 13, 3:00 pm)29.50 "Hg (May 8, 3:00 pm)
Average48 °F72%30.07 "Hg
* Reported May 6 12:00 am — May 21 12:00 am, Fort William. Weather by CustomWeather, © 2019

Note: Actual official high and low records may vary slightly from our data, if they occured in-between our weather recording intervals... More about our weather records

Advertising

Fort William Weather History for the Previous 24 Hours

Scroll right to see more
 ConditionsComfort  
Time TempWeatherWind HumidityBarometerVisibility
12:00 am
Tue, May 21
47 °FCool.2 mph100%30.04 "Hg6 mi
11:00 pm
Mon, May 20
47 °FCool.1 mph98%30.03 "Hg6 mi
10:00 pm48 °FRain. Overcast.2 mph97%30.03 "Hg5 mi
9:00 pm50 °FRain. Cloudy.5 mph85%30.01 "Hg11 mi
8:00 pm51 °FLight rain. Cloudy.3 mph87%30.01 "Hg17 mi
7:00 pm52 °FRain showers. Cloudy.5 mph83%29.99 "Hg25 mi
6:00 pm53 °FCool.6 mph80%29.98 "Hg31 mi
5:00 pm52 °FCool.10 mph79%29.97 "Hg25 mi
4:00 pm53 °FCool.12 mph75%29.96 "Hg31 mi
3:00 pm54 °FCool.10 mph71%29.95 "Hg31 mi
2:00 pm55 °FCool.7 mph74%29.94 "Hg31 mi
1:00 pm54 °FCool.7 mph73%29.94 "Hg22 mi
12:00 pm54 °FCool.8 mph76%29.93 "Hg31 mi
11:00 am52 °FCool.9 mph81%29.94 "Hg25 mi
10:00 am51 °FCool.7 mph89%29.93 "Hg28 mi
9:00 am50 °FCool.5 mph95%29.93 "Hg22 mi
8:00 am49 °FCool.2 mph97%29.92 "Hg19 mi
7:00 am48 °FCool.3 mph98%29.91 "Hg7 mi
6:00 am48 °FDrizzle. Cloudy.3 mph99%29.91 "Hg4 mi
5:00 am47 °FFog.2 mph99%29.90 "Hg3 mi
4:00 am48 °FCool.3 mph99%29.90 "Hg7 mi
3:00 am48 °FCool.3 mph99%29.90 "Hg6 mi
2:00 am48 °FFog.2 mph99%29.90 "Hg5 mi
1:00 am48 °FCool.2 mph99%29.90 "Hg10 mi
Weather by CustomWeather, © 2019

See weather overview